Weather History for KISN - March, 2014

Change the Weather History Date:

Sunday, March 2, 2014

  Actual Average Record
Temperature  
Mean Temperature -8 °F 23 °F  
Max Temperature 4 °F 33 °F 57 °F (2000)
Min Temperature -21 °F 12 °F -30 °F (2003)
Degree Days  
Heating Degree Days 73 42  
Month to date heating degree days 153 85  
Since 1 July heating degree days 7102 6853  
Cooling Degree Days 0 0  
Month to date cooling degree days 0 0  
Year to date cooling degree days 0 0  
Moisture  
Dew Point -21 °F    
Average Humidity 51    
Maximum Humidity 70    
Minimum Humidity 32    
Precipitation  
Precipitation T in 0.02 in 0.25 in (1982)
Month to date precipitation T 0.04  
Year to date precipitation 0.44 1.02  
Sea Level Pressure  
Sea Level Pressure 30.66 in    
Wind  
Wind Speed 4 mph (NE)    
Max Wind Speed 10 mph    
Max Gust Speed 13 mph    
Visibility 10 miles    
Events Snow    
T = Trace of Precipitation, MM = Missing Value Source: NWS Daily Summary

Daily Weather History Graph

Daily Weather History Graph

Search for Another Location

Airport or City:

Trip Planner

Search our weather history database for the weather conditions in past years. The results will help you decide how hot, cold, wet, or windy it might be!

Date:

Astronomy

Mar. 02, 2014 Rise Set
Actual Time 7:33 AM CST 6:40 PM CST
Civil Twilight 7:02 AM CST 7:11 PM CST
Nautical Twilight 6:26 AM CST 7:47 PM CST
Astronomical Twilight 5:50 AM CST 8:24 PM CST
Moon 7:56 AM CST (3/2) 8:51 PM CST (3/2)
Length of Visible Light 12h 09m
Length of Day
11h 06m
Waxing Crescent, 3% of the Moon is Illuminated
Mar 2
Waxing Crescent
Mar 8
First Quarter
Mar 16
Full
Mar 23
Last Quarter
Mar 30
New

Hourly Weather History & Observations

Time (CST) Temp. Windchill Dew Point Humidity Pressure Visibility Wind Dir Wind Speed Gust Speed Precip Events Conditions
12:52 AM -18.0 °F -30.9 °F -25.1 °F 70% 30.75 in 10.0 mi NW 4.6 mph - N/A   Clear
1:52 AM -18.9 °F - -26.0 °F 70% 30.75 in 10.0 mi Calm Calm - N/A   Clear
2:52 AM -18.0 °F - -25.1 °F 70% 30.74 in 10.0 mi Calm Calm - N/A   Clear
3:52 AM -18.0 °F -33.0 °F -26.0 °F 67% 30.74 in 10.0 mi North 5.8 mph - N/A   Clear
4:52 AM -18.9 °F - -26.0 °F 70% 30.74 in 10.0 mi Calm Calm - N/A   Clear
5:52 AM -18.9 °F - -27.0 °F 66% 30.74 in 10.0 mi Calm Calm - N/A   Clear
6:52 AM -20.0 °F - -27.0 °F 70% 30.73 in 10.0 mi Calm Calm - N/A   Clear
7:52 AM -18.9 °F -29.5 °F -26.0 °F 70% 30.74 in 10.0 mi West 3.5 mph - N/A   Clear
8:52 AM -16.1 °F -28.6 °F -24.0 °F 67% 30.75 in 10.0 mi WSW 4.6 mph - N/A   Clear
9:52 AM -11.0 °F - -22.0 °F 58% 30.74 in 10.0 mi Calm Calm - N/A   Clear
10:52 AM -7.1 °F -21.4 °F -25.1 °F 41% 30.74 in 10.0 mi West 6.9 mph - N/A   Clear
11:52 AM -2.9 °F -11.2 °F -23.1 °F 38% 30.71 in 10.0 mi Variable 3.5 mph - N/A   Clear
12:52 PM -2.0 °F -10.1 °F -23.1 °F 36% 30.70 in 10.0 mi WSW 3.5 mph - N/A   Clear
1:52 PM -0.0 °F -7.9 °F -22.0 °F 35% 30.66 in 10.0 mi Variable 3.5 mph - N/A   Clear
2:52 PM 1.9 °F -5.6 °F -20.0 °F 35% 30.63 in 10.0 mi NNE 3.5 mph - N/A   Clear
3:52 PM 3.0 °F - -20.9 °F 32% 30.61 in 10.0 mi Calm Calm - N/A   Scattered Clouds
4:52 PM 3.0 °F -10.5 °F -18.9 °F 35% 30.60 in 10.0 mi ENE 8.1 mph - N/A   Mostly Cloudy
5:52 PM 1.0 °F -14.0 °F -17.0 °F 43% 30.60 in 10.0 mi ENE 9.2 mph - N/A   Overcast
6:52 PM 1.0 °F -11.7 °F -17.0 °F 43% 30.59 in 10.0 mi ENE 6.9 mph - N/A   Overcast
7:52 PM -0.0 °F -14.2 °F -15.0 °F 49% 30.58 in 10.0 mi East 8.1 mph - N/A   Mostly Cloudy
8:52 PM -0.9 °F -14.1 °F -14.1 °F 54% 30.56 in 10.0 mi ENE 6.9 mph - N/A   Overcast
9:52 PM -0.9 °F -14.1 °F -13.0 °F 57% 30.54 in 5.0 mi East 6.9 mph - 0.00 in Snow Light Snow
10:52 PM -0.9 °F -14.1 °F -9.9 °F 66% 30.51 in 4.0 mi ESE 6.9 mph - 0.00 in Snow Light Snow
11:52 PM -0.9 °F -14.1 °F -9.9 °F 66% 30.47 in 9.0 mi East 6.9 mph - 0.00 in   Overcast